WetterOnline ( https://www.wetteronline.de )

Wetter aktuell Vogtsburg

Aktuelles Wetter: Freiburg/Flugplatz (236m)

6-stündlich | Neueste Meldungen
Ortszeit Temperatur Wetter
Mo, 06.02. 19:00 2.7° C bedeckt
Mo, 06.02. 13:00 4.8° C bewölkt
Mo, 06.02. 7:00 -0.1° C bewölkt
Mo, 06.02. 1:00 3.8° C leichter Regen
So, 05.02. 19:00 4.2° C Sprühregen
So, 05.02. 13:00 4.0° C Sprühregen
So, 05.02. 7:00 0.1° C bedeckt
So, 05.02. 1:00 0.1° C Nebel
Ortszeit Temperatur Wetter
Mo, 06.02. 23:30 1.1° C leicht bewölkt
Mo, 06.02. 23:20 1.1° C leicht bewölkt
Mo, 06.02. 23:10 1.2° C leicht bewölkt
Mo, 06.02. 23:00 1.1° C wolkig
Mo, 06.02. 22:50 1.1° C wolkig
Mo, 06.02. 22:40 1.3° C bewölkt
Mo, 06.02. 22:30 1.5° C bewölkt
Mo, 06.02. 22:00 1.8° C bewölkt
Mo, 06.02. 21:30 1.9° C bedeckt
Mo, 06.02. 21:00 1.8° C bedeckt
Mo, 06.02. 20:30 1.5° C bewölkt
Ortszeit Relative Feuchte Sichtweite
Mo, 06.02. 19:00 68% 35 km
Mo, 06.02. 13:00 67% 45 km
Mo, 06.02. 7:00 98% 3.5 km
Mo, 06.02. 1:00 95% 4.7 km
So, 05.02. 19:00 95% 9 km
So, 05.02. 13:00 93% 14 km
So, 05.02. 7:00 97% 13 km
So, 05.02. 1:00 97% 2.1 km
Ortszeit Relative Feuchte Sichtweite
Mo, 06.02. 23:30 72% 55 km
Mo, 06.02. 23:20 72% -
Mo, 06.02. 23:10 72% -
Mo, 06.02. 23:00 71% 55 km
Mo, 06.02. 22:50 71% -
Mo, 06.02. 22:40 70% -
Mo, 06.02. 22:30 69% 30 km
Mo, 06.02. 22:00 68% 27 km
Mo, 06.02. 21:30 68% 35 km
Mo, 06.02. 21:00 64% 55 km
Mo, 06.02. 20:30 67% 55 km
Ortszeit Niederschlagsmenge Niederschlagsart
Mo, 06.02. 19:00 0.0 l/m2 in 12 Std. -
Mo, 06.02. 13:00 0.0 l/m2 in 6 Std. -
Mo, 06.02. 7:00 0.9 l/m2 in 12 Std. Regen
Mo, 06.02. 1:00 0.9 l/m2 in 6 Std. Regen
So, 05.02. 19:00 5 l/m2 in 12 Std. Regen
So, 05.02. 13:00 1 l/m2 in 6 Std. Regen
So, 05.02. 7:00 0.0 l/m2 in 12 Std. -
So, 05.02. 1:00 0.0 l/m2 in 6 Std. -
Ortszeit Niederschlagsmenge Niederschlagsart
Mo, 06.02. 23:30 0.0 l/m2 in 30 Min -
Mo, 06.02. 23:20 keine Meldung -
Mo, 06.02. 23:10 keine Meldung -
Mo, 06.02. 23:00 0.0 l/m2 in 1 Std. -
Mo, 06.02. 22:50 keine Meldung -
Mo, 06.02. 22:40 keine Meldung -
Mo, 06.02. 22:30 0.0 l/m2 in 30 Min -
Mo, 06.02. 22:00 0.0 l/m2 in 1 Std. Niederschlag
Mo, 06.02. 21:30 0.0 l/m2 in 30 Min -
Mo, 06.02. 21:00 0.0 l/m2 in 1 Std. -
Mo, 06.02. 20:30 0.0 l/m2 in 30 Min -
Ortszeit Stärke Spitze Richtung
km/h Bft. km/h Grad Sektor
Mo, 06.02. 19:00 9 2 28 40° NO
Mo, 06.02. 13:00 9 2 19 20° N
Mo, 06.02. 7:00 2 1 11 280° W
Mo, 06.02. 1:00 7 2 11 330° NW
So, 05.02. 19:00 4 1 14 320° NW
So, 05.02. 13:00 2 1 11 320° NW
So, 05.02. 7:00 4 1 18 230° SW
So, 05.02. 1:00 4 1 7 10° N
Ortszeit Stärke Spitze Richtung
km/h Bft. km/h Grad Sektor
Mo, 06.02. 23:30 9 2 17 30° NO
Mo, 06.02. 23:20 9 2 - 30° NO
Mo, 06.02. 23:10 11 2 - 30° NO
Mo, 06.02. 23:00 6 1 11 30° NO
Mo, 06.02. 22:50 6 1 - 30° NO
Mo, 06.02. 22:40 6 1 - 40° NO
Mo, 06.02. 22:30 7 2 11 40° NO
Mo, 06.02. 22:00 7 2 11 30° NO
Mo, 06.02. 21:30 6 1 11 50° NO
Mo, 06.02. 21:00 4 1 11 10° N
Mo, 06.02. 20:30 6 1 11 350° N
Ortszeit Untergrenze Bedeckung Gattung
total tief tief mittel hoch
Mo, 06.02. 19:00 870 m 8/8 8/8 - - -
Mo, 06.02. 13:00 870 m 7/8 7/8 - - -
Mo, 06.02. 7:00 1500 m 7/8 7/8 - - -
Mo, 06.02. 1:00 150 m 8/8 8/8 - - -
So, 05.02. 19:00 480 m 7/8 7/8 - - -
So, 05.02. 13:00 690 m 7/8 7/8 - - -
So, 05.02. 7:00 1500 m 8/8 8/8 - - -
So, 05.02. 1:00 10500 m 2/8 0/8 - - -
Ortszeit Bedeckungsgrad in Achtel und Wolkenuntergrenze
Mo, 06.02. 23:30 2(1230m)
Mo, 06.02. 23:20 2(1230m)
Mo, 06.02. 23:10 3
Mo, 06.02. 23:00 5(1200m) 6(2700m)
Mo, 06.02. 22:50 5(1200m) 6(2700m)
Mo, 06.02. 22:40 7
Mo, 06.02. 22:30 7(2400m)
Mo, 06.02. 22:00 7(2100m)
Mo, 06.02. 21:30 8(1800m)
Mo, 06.02. 21:00 8(1500m)
Mo, 06.02. 20:30 3(1290m) 7(1500m)
Ortszeit Luftdruck NN (hPa) Tendenz (hPa in 3 Std.)
Mo, 06.02. 19:00 1037 + 0,8
Mo, 06.02. 13:00 1037 - 1,3
Mo, 06.02. 7:00 1038 0,0
Mo, 06.02. 1:00 1038 + 1,5
So, 05.02. 19:00 1036 + 0,6
So, 05.02. 13:00 1037 - 1,8
So, 05.02. 7:00 1039 - 0,1
So, 05.02. 1:00 1039 + 0,4
Ortszeit Luftdruck NN (hPa) Tendenz (hPa in 3 Std.)
Mo, 06.02. 23:30 1035 - 1,3
Mo, 06.02. 23:20 1035 keine Meldung
Mo, 06.02. 23:10 1035 keine Meldung
Mo, 06.02. 23:00 1035 - 1,3
Mo, 06.02. 22:50 1035 keine Meldung
Mo, 06.02. 22:40 1036 keine Meldung
Mo, 06.02. 22:30 1036 - 1,4
Mo, 06.02. 22:00 1036 - 1,6
Mo, 06.02. 21:30 1036 - 1,5
Mo, 06.02. 21:00 1036 - 1,3
Mo, 06.02. 20:30 1036 - 0,4
Ortszeit Schneehöhe (cm)
Mo, 06.02. 19:00 0
Mo, 06.02. 13:00 0
Mo, 06.02. 7:00 0
Mo, 06.02. 1:00 0
So, 05.02. 19:00 0
So, 05.02. 13:00 0
So, 05.02. 7:00 0
So, 05.02. 1:00 0
Ortszeit Schneehöhe (cm)
Mo, 06.02. 23:30 0
Mo, 06.02. 23:20 0
Mo, 06.02. 23:10 0
Mo, 06.02. 23:00 0
Mo, 06.02. 22:50 0
Mo, 06.02. 22:40 0
Mo, 06.02. 22:30 0
Mo, 06.02. 22:00 0
Mo, 06.02. 21:30 0
Mo, 06.02. 21:00 0
Mo, 06.02. 20:30 0
Link zu dieser Seite / Seite empfehlen

Das Wetter in ...